Mt. Pocono, PA

12:23 AM EST on December 15, 2017 (GMT -0500)
Pocono Mountains Municipal

Weather History for KMPO - April, 2014

Change the Weather History Date:

Tuesday, April 15, 2014

  Actual Average Record
Temperature  
Mean Temperature 45 °F 45 °F  
Max Temperature 62 °F 55 °F 82 °F (1941)
Min Temperature 27 °F 35 °F 14 °F (1943)
Degree Days  
Heating Degree Days 20 20  
Month to date heating degree days 282 341  
Since 1 July heating degree days 6885 6439  
Cooling Degree Days 0 0  
Month to date cooling degree days 0 0  
Year to date cooling degree days 0 0  
Moisture  
Dew Point 45 °F    
Average Humidity 88    
Maximum Humidity 97    
Minimum Humidity 78    
Precipitation  
Precipitation 1.72 in 0.13 in 2.61 in (2007)
Month to date precipitation 2.78 2.33  
Year to date precipitation 11.38 11.42  
Sea Level Pressure  
Sea Level Pressure 29.67 in    
Wind  
Wind Speed 17 mph (WSW)    
Max Wind Speed 31 mph    
Max Gust Speed 41 mph    
Visibility 4 miles    
Events Fog , Rain , Snow    
T = Trace of Precipitation, MM = Missing Value Source: NWS Daily Summary

Daily Weather History Graph

Daily Weather History Graph

Search for Another Location

Airport or City:

Trip Planner

Search our weather history database for the weather conditions in past years. The results will help you decide how hot, cold, wet, or windy it might be!

Date:

Astronomy

Apr. 15, 2014 Rise Set
Actual Time 6:22 AM EDT 7:41 PM EDT
Civil Twilight 5:53 AM EDT 8:10 PM EDT
Nautical Twilight 5:19 AM EDT 8:44 PM EDT
Astronomical Twilight 4:43 AM EDT 9:20 PM EDT
Moon 8:20 PM EDT 6:28 AM EDT
Length of Visible Light 14h 16m
Length of Day
13h 19m
Full, 100% of the Moon is Illuminated
Apr 15
Full
Apr 22
Last Quarter
Apr 29
New
May 6
First Quarter
May 14
Full

Hourly Weather History & Observations

Time (EDT) Temp. Windchill Dew Point Humidity Pressure Visibility Wind Dir Wind Speed Gust Speed Precip Events Conditions
12:53 AM 59.0 °F - 53.1 °F 81% 29.80 in 10.0 mi South 10.4 mph - N/A   Scattered Clouds
1:53 AM 59.0 °F - 53.1 °F 81% 29.77 in 10.0 mi South 10.4 mph 21.9 mph N/A   Mostly Cloudy
2:20 AM 59.0 °F - 53.1 °F 81% 29.79 in 10.0 mi South 11.5 mph 21.9 mph N/A   Overcast
2:41 AM 59.0 °F - 53.1 °F 81% 29.78 in 10.0 mi South 10.4 mph - N/A   Overcast
2:53 AM 59.0 °F - 54.0 °F 83% 29.76 in 9.0 mi South 12.7 mph - 0.00 in Rain Light Rain
3:35 AM 57.9 °F - 55.0 °F 90% 29.75 in 10.0 mi South 10.4 mph 18.4 mph 0.02 in Rain Light Rain
3:53 AM 57.9 °F - 55.0 °F 90% 29.73 in 10.0 mi South 12.7 mph - 0.02 in   Overcast
4:32 AM 57.0 °F - 55.0 °F 93% 29.73 in 3.0 mi South 13.8 mph 20.7 mph 0.03 in Rain Light Rain
4:53 AM 57.0 °F - 55.0 °F 93% 29.70 in 2.5 mi South 12.7 mph 24.2 mph 0.05 in Rain Light Rain
5:02 AM 57.0 °F - 55.0 °F 93% 29.71 in 5.0 mi South 13.8 mph 23.0 mph 0.00 in Rain Light Rain
5:09 AM 57.0 °F - 55.0 °F 93% 29.71 in 6.0 mi South 15.0 mph - 0.00 in Rain Light Rain
5:22 AM 57.0 °F - 55.0 °F 93% 29.71 in 1.5 mi South 15.0 mph 21.9 mph 0.00 in Rain Light Rain
5:30 AM 57.0 °F - 55.9 °F 96% 29.71 in 0.2 mi South 16.1 mph 21.9 mph 0.00 in Fog Fog
5:51 AM 57.2 °F - 55.4 °F 94% 29.69 in 0.5 mi South 16.1 mph 25.3 mph 0.00 in Fog Fog
5:53 AM 57.0 °F - 55.9 °F 96% 29.68 in 0.5 mi South 15.0 mph 25.3 mph 0.00 in Fog Fog
6:11 AM 57.9 °F - 55.9 °F 93% 29.69 in 0.8 mi South 17.3 mph 26.5 mph 0.00 in Rain Light Rain
6:23 AM 57.9 °F - 55.9 °F 93% 29.68 in 0.2 mi South 17.3 mph 26.5 mph 0.00 in Fog , Rain Light Rain
6:38 AM 57.9 °F - 55.9 °F 93% 29.68 in 0.8 mi South 15.0 mph 20.7 mph 0.03 in Rain Rain
6:44 AM 57.9 °F - 55.9 °F 93% 29.68 in 2.0 mi South 15.0 mph 23.0 mph 0.05 in Rain Rain
6:53 AM 57.9 °F - 55.9 °F 93% 29.66 in 2.5 mi South 13.8 mph 24.2 mph 0.07 in Rain Rain
7:06 AM 57.9 °F - 55.9 °F 93% 29.67 in 3.0 mi South 16.1 mph 21.9 mph 0.04 in Rain Light Rain
7:19 AM 57.9 °F - 57.0 °F 97% 29.67 in 2.5 mi South 10.4 mph 23.0 mph 0.05 in Rain Light Rain
7:34 AM 59.0 °F - 57.0 °F 93% 29.66 in 1.8 mi South 10.4 mph - 0.11 in Rain Rain
7:43 AM 59.0 °F - 57.0 °F 93% 29.65 in 2.0 mi South 15.0 mph 26.5 mph 0.14 in Rain Rain
7:53 AM 59.0 °F - 57.0 °F 93% 29.63 in 1.8 mi South 13.8 mph 24.2 mph 0.18 in Rain Rain
8:16 AM 60.1 °F - 57.0 °F 90% 29.63 in 2.0 mi South 21.9 mph 34.5 mph 0.08 in Rain Rain
8:20 AM 60.1 °F - 57.0 °F 90% 29.63 in 1.8 mi South 18.4 mph 34.5 mph 0.10 in Rain Rain
8:44 AM 60.1 °F - 57.9 °F 93% 29.62 in 2.5 mi South 16.1 mph 36.8 mph 0.20 in Rain Rain
8:53 AM 60.1 °F - 57.9 °F 93% 29.60 in 3.0 mi South 20.7 mph 33.4 mph 0.22 in Rain Rain
9:13 AM 60.1 °F - 57.9 °F 93% 29.60 in 1.8 mi South 19.6 mph 31.1 mph 0.06 in Rain Rain
9:26 AM 61.0 °F - 57.9 °F 90% 29.59 in 2.5 mi South 18.4 mph 26.5 mph 0.10 in Rain Rain
9:36 AM 61.0 °F - 57.9 °F 90% 29.59 in 1.8 mi South 16.1 mph 27.6 mph 0.14 in Rain Rain
9:44 AM 61.0 °F - 57.9 °F 90% 29.58 in 2.0 mi South 19.6 mph 28.8 mph 0.17 in Rain Rain
9:53 AM 61.0 °F - 57.9 °F 90% 29.55 in 1.0 mi South 23.0 mph 29.9 mph 0.23 in Rain Heavy Rain
10:26 AM 61.0 °F - 59.0 °F 93% 29.55 in 2.5 mi South 21.9 mph 32.2 mph 0.19 in Rain Rain
10:36 AM 61.0 °F - 59.0 °F 93% 29.55 in 1.5 mi South 17.3 mph 35.7 mph 0.24 in Rain Heavy Rain
10:44 AM 61.0 °F - 59.0 °F 93% 29.55 in 1.0 mi SSW 23.0 mph 40.3 mph 0.36 in Rain Heavy Rain
10:51 AM 62.6 °F - 59.0 °F 88% 29.57 in 0.5 mi SW 17.3 mph 40.3 mph 0.50 in Fog , Rain Heavy Rain
10:53 AM 61.0 °F - 59.0 °F 93% 29.55 in 0.5 mi SSW 17.3 mph 28.8 mph 0.52 in Fog , Rain Heavy Rain
10:56 AM 61.0 °F - 57.9 °F 90% 29.57 in 0.8 mi SSW 28.8 mph 40.3 mph 0.02 in Rain Heavy Rain
11:01 AM 61.0 °F - 57.0 °F 87% 29.57 in 1.2 mi SSW 25.3 mph 40.3 mph 0.03 in Rain Rain
11:06 AM 60.1 °F - 55.9 °F 86% 29.57 in 3.0 mi SSW 20.7 mph 39.1 mph 0.04 in Rain Light Rain
11:21 AM 59.0 °F - 55.0 °F 87% 29.57 in 5.0 mi SW 23.0 mph 33.4 mph 0.06 in Rain Rain
11:50 AM 57.2 °F - 55.4 °F 94% 29.58 in 5.0 mi SW 13.8 mph 26.5 mph 0.11 in Rain Light Rain
11:53 AM 57.9 °F - 55.9 °F 93% 29.57 in 6.0 mi SW 16.1 mph 26.5 mph 0.11 in Rain Light Rain
12:53 PM 60.1 °F - 57.0 °F 90% 29.52 in 10.0 mi SSW 15.0 mph 20.7 mph 0.04 in Rain Light Rain
1:43 PM 59.0 °F - 55.9 °F 90% 29.55 in 10.0 mi WSW 9.2 mph 18.4 mph 0.01 in Rain Light Rain
1:46 PM 59.0 °F - 55.9 °F 90% 29.54 in 10.0 mi WSW 11.5 mph 18.4 mph 0.02 in Rain Light Rain
1:53 PM 59.0 °F - 55.9 °F 90% 29.54 in 10.0 mi WSW 10.4 mph - 0.02 in Rain Light Rain
2:02 PM 59.0 °F - 55.9 °F 90% 29.56 in 10.0 mi West 24.2 mph 36.8 mph 0.00 in Rain Light Rain
2:09 PM 46.9 °F - 44.1 °F 90% 29.57 in 1.8 mi NNW 20.7 mph 36.8 mph 0.04 in Rain Heavy Rain
2:14 PM 46.0 °F 38.8 °F 43.0 °F 89% 29.57 in 1.2 mi NNW 18.4 mph 31.1 mph 0.06 in Rain Heavy Rain
2:20 PM 45.0 °F 37.4 °F 42.1 °F 90% 29.58 in 3.0 mi NW 18.4 mph 28.8 mph 0.06 in Rain Light Rain
2:53 PM 43.0 °F 35.1 °F 39.0 °F 86% 29.59 in 6.0 mi NW 17.3 mph 29.9 mph 0.06 in Rain Light Rain
3:02 PM 42.1 °F 33.9 °F 39.0 °F 89% 29.58 in 5.0 mi NW 17.3 mph 26.5 mph 0.00 in Rain Light Rain
3:12 PM 42.1 °F 32.3 °F 37.9 °F 85% 29.58 in 10.0 mi NW 24.2 mph 34.5 mph 0.00 in   Overcast
3:19 PM 41.0 °F 31.1 °F 37.0 °F 86% 29.59 in 10.0 mi NW 23.0 mph 36.8 mph 0.00 in   Overcast
3:32 PM 41.0 °F 31.4 °F 37.0 °F 86% 29.58 in 5.0 mi NNW 21.9 mph 34.5 mph 0.00 in Rain Light Rain
3:53 PM 39.9 °F 29.2 °F 37.0 °F 89% 29.61 in 7.0 mi NNW 25.3 mph 33.4 mph 0.00 in Rain Light Rain
4:53 PM 39.0 °F 30.3 °F 35.1 °F 86% 29.65 in 3.0 mi NNW 16.1 mph 24.2 mph 0.03 in Rain Light Rain
5:13 PM 37.9 °F 28.9 °F 34.0 °F 86% 29.65 in 5.0 mi NW 16.1 mph 31.1 mph 0.01 in Rain Light Rain
5:19 PM 37.9 °F 28.2 °F 35.1 °F 89% 29.66 in 2.5 mi NW 18.4 mph 31.1 mph 0.03 in Rain Rain
5:34 PM 37.0 °F 27.4 °F 34.0 °F 89% 29.66 in 4.0 mi NW 17.3 mph 29.9 mph 0.04 in Rain Rain
5:48 PM 35.6 °F 24.2 °F 32.0 °F 87% 29.66 in 4.0 mi NNW 21.9 mph 33.4 mph 0.05 in Rain Light Rain
5:53 PM 36.0 °F 26.3 °F 32.0 °F 86% 29.68 in 5.0 mi NNW 16.1 mph 33.4 mph 0.05 in Rain Light Rain
6:53 PM 34.0 °F 22.7 °F 28.9 °F 82% 29.73 in 10.0 mi NW 19.6 mph 29.9 mph 0.02 in Rain Light Rain
7:02 PM 33.1 °F 22.6 °F 28.9 °F 85% 29.71 in 4.0 mi NW 16.1 mph 28.8 mph 0.00 in Rain Light Rain
7:14 PM 33.1 °F 23.0 °F 30.0 °F 89% 29.73 in 1.8 mi NW 15.0 mph 27.6 mph 0.02 in Snow Light Snow
7:21 PM 33.1 °F 21.5 °F 30.0 °F 89% 29.74 in 0.8 mi NW 19.6 mph 25.3 mph 0.02 in Snow Light Snow
7:28 PM 32.0 °F 21.2 °F 30.0 °F 92% 29.74 in 0.2 mi NW 16.1 mph 26.5 mph 0.03 in Fog , Snow Snow
7:39 PM 32.0 °F 21.2 °F 28.9 °F 88% 29.73 in 0.2 mi NW 16.1 mph 29.9 mph 0.03 in Fog , Snow Snow
7:46 PM 32.0 °F 22.5 °F 28.9 °F 88% 29.74 in 0.5 mi NNW 12.7 mph 27.6 mph 0.03 in Fog , Snow Snow
7:53 PM 32.0 °F 20.5 °F 28.9 °F 88% 29.77 in 0.8 mi NW 18.4 mph 29.9 mph 0.04 in Snow Light Snow
8:00 PM 32.0 °F 22.5 °F 28.9 °F 88% 29.75 in 1.5 mi NNW 12.7 mph 26.5 mph 0.00 in Snow Light Snow
8:03 PM 32.0 °F 21.2 °F 28.9 °F 88% 29.75 in 2.0 mi NNW 16.1 mph 23.0 mph 0.00 in Snow Light Snow
8:15 PM 32.0 °F 20.5 °F 28.9 °F 88% 29.75 in 1.8 mi NNW 18.4 mph 27.6 mph 0.00 in Snow Light Snow
8:42 PM 32.0 °F 20.5 °F 28.0 °F 85% 29.79 in 2.5 mi NW 18.4 mph 31.1 mph 0.00 in Snow Light Snow
8:53 PM 30.9 °F 20.2 °F 28.0 °F 89% 29.81 in 1.8 mi NW 15.0 mph 28.8 mph 0.00 in Snow Light Snow
9:05 PM 30.9 °F 20.7 °F 28.0 °F 89% 29.78 in 0.5 mi NNW 13.8 mph 28.8 mph 0.01 in Fog , Snow Snow
9:22 PM 30.9 °F 21.2 °F 28.0 °F 89% 29.81 in 0.5 mi NW 12.7 mph 27.6 mph 0.02 in Fog , Snow Snow
9:39 PM 30.0 °F 19.5 °F 27.0 °F 88% 29.84 in 0.2 mi NW 13.8 mph 25.3 mph 0.03 in Fog , Snow Heavy Snow
9:53 PM 28.9 °F 16.5 °F 27.0 °F 92% 29.86 in 0.2 mi NW 18.4 mph 24.2 mph 0.04 in Fog , Snow Heavy Snow
10:06 PM 28.9 °F 16.1 °F 25.0 °F 85% 29.84 in 0.5 mi NW 19.6 mph 31.1 mph 0.01 in Fog , Snow Snow
10:20 PM 28.0 °F 15.7 °F 25.0 °F 88% 29.81 in 0.5 mi NW 17.3 mph 32.2 mph 0.01 in Fog , Snow Snow
10:42 PM 28.0 °F 13.9 °F 24.1 °F 85% 29.85 in 2.0 mi NW 23.0 mph 31.1 mph 0.02 in Snow Light Snow
10:46 PM 28.0 °F 14.6 °F 24.1 °F 85% 29.85 in 4.0 mi NW 20.7 mph 33.4 mph 0.02 in Snow Light Snow
10:53 PM 28.0 °F 14.3 °F 23.0 °F 81% 29.87 in 7.0 mi NW 21.9 mph 33.4 mph 0.02 in   Overcast
11:53 PM 27.0 °F 13.2 °F 21.0 °F 78% 29.90 in 8.0 mi NW 20.7 mph 33.4 mph 0.00 in   Overcast